Regional Weather Roundup
Issued by NWS

Home | Current Version | Previous Version | Text Only | Print | Product List | Glossary On
Versions: 1 2 3 4 5 6 7 8 9 10 11 12 13 14 15 16 17 18 19 20 21 22 23 24 25 26 27 28 29 30 31 32 33 34 35 36 37 38 39 40 41 42 43 44 45 46 47 48 49 50
000
ASUS46 KSTO 211715
RWRCA

NORTHERN AND CENTRAL CA REGIONAL WEATHER ROUNDUP
NATIONAL WEATHER SERVICE SACRAMENTO CA
1000 AM PDT FRI JUL 21 2017

NOTE: FAIR INDICATES FEW OR NO CLOUDS BELOW 12,000 FEET WITH NO
SIGNIFICANT WEATHER AND/OR OBSTRUCTIONS TO VISIBILITY.

CAZ001-003-211800-
NORTHWEST AREA

CITY           SKY/WX    TMP DP  RH WIND       PRES   REMARKS
CRESCENT CITY  SUNNY     57  54  89 NW3       30.16S
UKIAH          SUNNY     72  50  45 CALM      30.02F
$$

CAZ006-505>513-211800-
BAY AREA

CITY           SKY/WX    TMP DP  RH WIND       PRES   REMARKS
SANTA ROSA     NOT AVBL
SAN RAFAEL     N/A       64  MM  MM MISG
NAPA           SUNNY     69  53  56 SW9       30.00S
CONCORD        SUNNY     73  51  46 S6        29.98F
OAKLAND CITY   N/A      MM  MM  MM MISG
OAKLAND        MOSUNNY   65  54  67 SW8       30.03R
SAN FRAN CITY  N/A       60  MM  68 MISG
SAN FRAN ARPT  MOSUNNY   63  51  65 NW13      30.02S
LIVERMORE      SUNNY     70  53  54 W7        30.00F
HAYWARD        SUNNY     64  50  60 W6        30.03S
REDWOOD CITY   N/A       68  MM  61 MISG
MOFFETT ARPT   SUNNY     67  55  65 VRB6      30.03F
SAN JOSE ARPT  MOSUNNY   69  54  58 CALM      30.02S
$$
CAZ034-037-514>518-211800-
CENTRAL COAST

CITY           SKY/WX    TMP DP  RH WIND       PRES   REMARKS
SALINAS        SUNNY     63  53  70 W9        30.04S
MONTEREY       MOSUNNY   61  52  72 SW13      30.05F
SAN LUIS OBISP SUNNY     67  54  63 VRB3      29.98F
SANTA MARIA    SUNNY     64  55  72 W5        30.00S
$$
CAZ015-016-211800-
NORTHERN SACRAMENTO VALLEY

CITY           SKY/WX    TMP DP  RH WIND       PRES   REMARKS
REDDING        SUNNY     86  51  29 NW5       29.95F
RED BLUFF      SUNNY     87  48  25 N9        29.96F
OROVILLE       SUNNY     79  58  48 W3        29.98R
$$
CAZ016>018-211800-
SOUTHERN SACRAMENTO VALLEY

CITY           SKY/WX    TMP DP  RH WIND       PRES   REMARKS
AUBURN         SUNNY     81  45  28 W3        30.01S
BEALE AFB      SUNNY     78  54  43 SW5       29.95S
LINCOLN        FAIR      79  45  29 CALM      29.95F
MARYSVILLE     SUNNY     77  32  19 VRB3      29.97S
MATHER AIRPORT SUNNY     75  52  43 SW5       29.96S
DOWNTOWN SAC   N/A       75  MM  MM MISG
SAC EXEC ARPT  SUNNY     72  56  57 CALM      29.97S
VACAVILLE      SUNNY     79  58  48 VRB5      29.97S
TRAVIS AFB     SUNNY     73  53  49 SW14      29.95S
$$
CAZ019>021-211800-
SAN JOAQUIN VALLEY

CITY           SKY/WX    TMP DP  RH WIND       PRES   REMARKS
STOCKTON       SUNNY     78  52  40 NW8       29.96F
MODESTO        SUNNY     78  49  35 NW10      29.95S
MERCED         SUNNY     78  51  38 NW9       29.95S
LEMOORE        MOSUNNY   81  51  35 NW7       29.97S
FRESNO         SUNNY     80  52  37 NW3       29.96S
HANFORD        SUNNY     79  52  38 NW6       29.97S
PORTERVILLE      N/A     78  54  43 SW6       29.98F
BAKERSFIELD    SUNNY     84  53  34 VRB3      29.96F
$$
CAZ011-012-071-211800-
NORTHERN MOUNTAINS

CITY           SKY/WX    TMP DP  RH WIND       PRES   REMARKS
YREKA          SUNNY     73  47  39 VRB5      30.14F
MOUNT SHASTA   SUNNY     74  51  44 VRB5      30.14F
ALTURAS        SUNNY     71  40  32 W3        30.17F
$$
CAZ011-012-071-211800-
SIERRA NEVADA MTNS

CITY           SKY/WX    TMP DP  RH WIND       PRES   REMARKS
TAHOE VLY ARPT SUNNY     66  32  28 NE6       30.26F
MAMMOTH LAKES  FAIR      74  34  23 SE3       30.31S
$$




USA.gov is the U.S. government's official web portal to all federal, state and local government web resources and services.